Bratislava, Slovakia

12:19 AM CEST on July 26, 2017 (GMT +0200)
M.R. Stefanik

Weather History for LZIB - September, 2013

Change the Weather History Date:

Friday, September 27, 2013

  Actual Average Record
Temperature  
Mean Temperature 53 °F -  
Max Temperature 60 °F 59 °F 78 °F (2011)
Min Temperature 46 °F 44 °F 41 °F (1996)
Degree Days  
Heating Degree Days 12    
Growing Degree Days 3 (Base 50)    
Moisture  
Dew Point 41 °F    
Average Humidity 66    
Maximum Humidity 88    
Minimum Humidity 27    
Precipitation  
Precipitation 0.00 in - - ()
Sea Level Pressure  
Sea Level Pressure 30.06 in    
Wind  
Wind Speed 4 mph ()    
Max Wind Speed 9 mph    
Max Gust Speed -    
Visibility 10.2 miles    
Events      
Averages and records for this station are not official NWS values.
T = Trace of Precipitation, MM = Missing Value Source: Averaged Metar Reports

Daily Weather History Graph

Daily Weather History Graph

Search for Another Location

Airport or City:

Trip Planner

Search our weather history database for the weather conditions in past years. The results will help you decide how hot, cold, wet, or windy it might be!

Date:

Astronomy

Sep. 27, 2013 Rise Set
Actual Time 6:44 AM CEST 6:38 PM CEST
Civil Twilight 6:13 AM CEST 7:09 PM CEST
Nautical Twilight 5:37 AM CEST 7:45 PM CEST
Astronomical Twilight 5:00 AM CEST 8:23 PM CEST
Moon 11:53 PM CEST (9/27) 2:29 PM CEST (9/27)
Length of Visible Light 12h 55m
Length of Day
11h 53m
Waning Gibbous, 48% of the Moon is Illuminated
Sep 27
Waning Gibbous
Oct 5
New
Oct 12
First Quarter
Oct 19
Full
Oct 27
Last Quarter

Hourly Weather History & Observations

Time (CEST) Temp. Windchill Dew Point Humidity Pressure Visibility Wind Dir Wind Speed Gust Speed Precip Events Conditions
12:00 AM 54 °F - 50 °F 80% 30.01 in 12 mi NE 4.5 mph - -   Partly Cloudy
12:00 AM 53.6 °F - 50.0 °F 88% 30.01 in 6.2 mi NE 4.6 mph - N/A   Mostly Cloudy
12:30 AM 53.6 °F - 48.2 °F 82% 30.01 in 6.2 mi NE 6.9 mph - N/A   Mostly Cloudy
1:00 AM 51.8 °F - 48.2 °F 88% 30.04 in 6.2 mi NNE 3.5 mph - N/A   Mostly Cloudy
1:30 AM 51.8 °F - 48.2 °F 88% 30.04 in 6.2 mi North 2.3 mph - N/A   Mostly Cloudy
2:00 AM 52 °F - 47 °F 79% 30.06 in 16 mi NNE 2.2 mph - -   Partly Cloudy
2:00 AM 51.8 °F - 48.2 °F 88% 30.04 in 6.2 mi NNE 2.3 mph - N/A   Mostly Cloudy
2:30 AM 50.0 °F - 46.4 °F 87% 30.04 in - NNE 6.9 mph - N/A   Clear
3:00 AM 49 °F - 45 °F 79% 30.07 in 16 mi North 4.5 mph - -   Partly Cloudy
3:00 AM 48.2 °F - 44.6 °F 87% 30.04 in - NNE 4.6 mph - N/A   Clear
3:30 AM 48.2 °F - 44.6 °F 87% 30.06 in - North 4.6 mph - N/A   Clear
4:00 AM 49 °F - 44 °F 77% 30.07 in 16 mi WNW 4.5 mph - -   Partly Cloudy
4:00 AM 48.2 °F - 44.6 °F 87% 30.06 in - WNW 3.5 mph - N/A   Clear
4:30 AM 48.2 °F - 44.6 °F 87% 30.06 in - NW 6.9 mph - N/A   Clear
5:00 AM 48 °F - 44 °F 80% 30.08 in 12 mi NNW 8.9 mph - -   Scattered Clouds
5:00 AM 48.2 °F - 42.8 °F 82% 30.06 in - NNW 8.1 mph - N/A   Clear
5:30 AM 46.4 °F 45.2 °F 42.8 °F 87% 30.06 in - Variable 3.5 mph - N/A   Clear
6:00 AM 46.4 °F - 42.8 °F 87% 30.06 in - Variable 1.2 mph - N/A   Clear
6:30 AM 46.4 °F - 42.8 °F 87% 30.06 in - Calm Calm - N/A   Clear
7:00 AM 48.2 °F - 41.0 °F 76% 30.06 in - NNW 3.5 mph - N/A   Clear
7:30 AM 48.2 °F - 42.8 °F 82% 30.06 in - NNE 2.3 mph - N/A   Clear
8:00 AM 51 °F - 43 °F 66% 30.11 in 16 mi Calm Calm - -   Partly Cloudy
8:00 AM 50.0 °F - 42.8 °F 76% 30.09 in - Calm Calm - N/A   Clear
8:30 AM 50.0 °F - 41.0 °F 71% 30.09 in - NNE 5.8 mph - N/A   Clear
9:00 AM 52 °F - 40 °F 54% 30.11 in 19 mi NE 8.9 mph - -   Partly Cloudy
9:00 AM 51.8 °F - 41.0 °F 67% 30.09 in - NE 6.9 mph - N/A   Clear
9:30 AM 53.6 °F - 39.2 °F 58% 30.09 in 6.2 mi ENE 9.2 mph - N/A   Scattered Clouds
10:00 AM 53.6 °F - 39.2 °F 58% 30.09 in - ENE 9.2 mph - N/A   Clear
10:30 AM 55.4 °F - 37.4 °F 51% 30.09 in 6.2 mi NE 8.1 mph - N/A   Partly Cloudy
11:00 AM 56 °F - 37 °F 37% 30.11 in 19 mi NNE 4.5 mph - -   Scattered Clouds
11:00 AM 55.4 °F - 35.6 °F 47% 30.09 in 6.2 mi NNE 5.8 mph - N/A   Partly Cloudy
11:30 AM 55.4 °F - 35.6 °F 47% 30.09 in 6.2 mi ENE 5.8 mph - N/A   Partly Cloudy
12:00 PM 57.2 °F - 37.4 °F 48% 30.06 in 6.2 mi NE 4.6 mph - N/A   Partly Cloudy
12:30 PM 57.2 °F - 35.6 °F 44% 30.06 in 6.2 mi ENE 4.6 mph - N/A   Partly Cloudy
1:00 PM 59 °F - 34 °F 27% 30.09 in 25 mi 2.2 mph - -   Scattered Clouds
1:00 PM 59.0 °F - 35.6 °F 42% 30.06 in 6.2 mi Variable 2.3 mph - N/A   Partly Cloudy
1:30 PM 60.8 °F - 35.6 °F 39% 30.06 in 6.2 mi SSE 3.5 mph - N/A   Partly Cloudy
2:00 PM 60 °F - 37 °F 31% 30.06 in 25 mi 4.5 mph - -   Scattered Clouds
2:00 PM 59.0 °F - 35.6 °F 42% 30.06 in - Variable 3.5 mph - N/A   Clear
2:30 PM 59.0 °F - 33.8 °F 39% 30.04 in - Variable 4.6 mph - N/A   Clear
3:00 PM 59 °F - 34 °F 27% 30.06 in 25 mi Calm Calm - -   Scattered Clouds
3:00 PM 59.0 °F - 33.8 °F 39% 30.04 in - Variable 1.2 mph - N/A   Clear
3:30 PM 59.0 °F - 35.6 °F 42% 30.04 in - Variable 1.2 mph - N/A   Clear
4:00 PM 59.0 °F - 35.6 °F 42% 30.04 in - Variable 1.2 mph - N/A   Clear
4:30 PM 60.8 °F - 37.4 °F 42% 30.04 in - Variable 1.2 mph - N/A   Clear
5:00 PM 60 °F - 35 °F 28% 30.03 in 25 mi Calm Calm - -   Scattered Clouds
5:00 PM 59.0 °F - 37.4 °F 45% 30.01 in - Calm Calm - N/A   Clear
5:30 PM 59.0 °F - 35.6 °F 42% 30.01 in - West 2.3 mph - N/A   Clear
6:00 PM 56 °F - 42 °F 49% 30.04 in 25 mi NW 4.5 mph - -   Scattered Clouds
6:00 PM 57.2 °F - 41.0 °F 55% 30.04 in - NW 3.5 mph - N/A   Clear
6:30 PM 55.4 °F - 42.8 °F 63% 30.04 in - NW 4.6 mph - N/A   Clear
7:00 PM 54 °F - 43 °F 58% 30.04 in 22 mi WNW 4.5 mph - -   Partly Cloudy
7:00 PM 53.6 °F - 42.8 °F 67% 30.04 in - WNW 4.6 mph - N/A   Clear
7:30 PM 53.6 °F - 42.8 °F 67% 30.04 in - NW 3.5 mph - N/A   Clear
8:00 PM 51 °F - 44 °F 68% 30.05 in 19 mi NNW 4.5 mph - -   Scattered Clouds
8:00 PM 51.8 °F - 42.8 °F 71% 30.04 in - North 5.8 mph - N/A   Clear
8:30 PM 50.0 °F - 42.8 °F 76% 30.04 in - Calm Calm - N/A   Clear
9:00 PM 49 °F - 43 °F 74% 30.06 in 12 mi Calm Calm - -   Scattered Clouds
9:00 PM 50.0 °F - 42.8 °F 76% 30.04 in - Calm Calm - N/A   Clear
9:30 PM 48.2 °F - 42.8 °F 82% 30.04 in - South 3.5 mph - N/A   Clear
10:00 PM 48 °F - 43 °F 77% 30.06 in 9 mi Calm Calm - -   Scattered Clouds
10:00 PM 48.2 °F - 44.6 °F 87% 30.04 in - South 1.2 mph - N/A   Clear
10:30 PM 46.4 °F - 42.8 °F 87% 30.04 in - Calm Calm - N/A   Clear
11:00 PM 47 °F - 43 °F 82% 30.06 in 9 mi Calm Calm - -   Partly Cloudy
11:00 PM 46.4 °F - 42.8 °F 87% 30.04 in - Calm Calm - N/A   Clear
11:30 PM 46.4 °F - 42.8 °F 87% 30.04 in - Variable 1.2 mph - N/A   Clear